TimeEST,TemperatureF,Dew PointF,Humidity,Sea Level PressureIn,VisibilityMPH,Wind Direction,Wind SpeedMPH,Gust SpeedMPH,PrecipitationIn,Events,Conditions,WindDirDegrees,DateUTC
12:15 AM,39.6,33.6,79,30.18,10.0,Calm,Calm,-,N/A,,Clear,0,2013-01-20 05:15:00
12:35 AM,38.7,33.6,82,30.17,10.0,Calm,Calm,-,N/A,,Clear,0,2013-01-20 05:35:00
12:55 AM,38.1,34.0,85,30.17,10.0,South,3.5,-,N/A,,Clear,190,2013-01-20 05:55:00
1:15 AM,37.8,33.3,84,30.16,10.0,South,3.5,-,N/A,,Clear,180,2013-01-20 06:15:00
1:35 AM,41.9,32.9,70,30.16,10.0,Calm,Calm,-,N/A,,Clear,0,2013-01-20 06:35:00
1:55 AM,39.7,32.7,76,30.16,10.0,Calm,Calm,-,N/A,,Clear,0,2013-01-20 06:55:00
2:15 AM,36.1,31.8,84,30.16,10.0,Calm,Calm,-,N/A,,Clear,0,2013-01-20 07:15:00
2:35 AM,36.5,32.2,84,30.15,10.0,Calm,Calm,-,N/A,,Clear,0,2013-01-20 07:35:00
2:55 AM,35.6,31.6,85,30.14,10.0,Calm,Calm,-,N/A,,Clear,0,2013-01-20 07:55:00
3:15 AM,34.9,31.3,87,30.14,10.0,Calm,Calm,-,N/A,,Clear,0,2013-01-20 08:15:00
3:55 AM,35.6,32.4,88,30.13,10.0,Calm,Calm,-,N/A,,Clear,0,2013-01-20 08:55:00
4:15 AM,34.3,32.0,91,30.13,10.0,Calm,Calm,-,N/A,,Clear,0,2013-01-20 09:15:00
4:35 AM,32.9,30.9,92,30.13,10.0,Calm,Calm,-,N/A,,Clear,0,2013-01-20 09:35:00
4:55 AM,32.4,30.7,94,30.12,10.0,Calm,Calm,-,N/A,,Clear,0,2013-01-20 09:55:00
5:15 AM,32.0,30.0,92,30.12,10.0,Calm,Calm,-,N/A,,Clear,0,2013-01-20 10:15:00
5:35 AM,32.0,30.4,94,30.11,10.0,Calm,Calm,-,N/A,,Clear,0,2013-01-20 10:35:00
5:55 AM,33.3,31.5,93,30.11,10.0,Calm,Calm,-,N/A,,Clear,0,2013-01-20 10:55:00
6:15 AM,33.1,30.9,92,30.11,10.0,Calm,Calm,-,N/A,,Clear,0,2013-01-20 11:15:00
6:35 AM,32.4,30.4,92,30.11,10.0,SSW,3.5,-,N/A,,Clear,200,2013-01-20 11:35:00
6:55 AM,31.6,29.3,91,30.11,10.0,Calm,Calm,-,N/A,,Clear,0,2013-01-20 11:55:00
7:15 AM,30.2,28.2,92,30.12,10.0,Calm,Calm,-,N/A,,Clear,0,2013-01-20 12:15:00
7:35 AM,30.4,28.4,92,30.12,10.0,Calm,Calm,-,N/A,,Clear,0,2013-01-20 12:35:00
7:55 AM,31.3,29.3,92,30.13,10.0,Calm,Calm,-,N/A,,Clear,0,2013-01-20 12:55:00
8:15 AM,32.4,30.4,92,30.13,10.0,Calm,Calm,-,N/A,,Clear,0,2013-01-20 13:15:00
8:35 AM,35.2,32.7,91,30.13,10.0,Calm,Calm,-,N/A,,Clear,0,2013-01-20 13:35:00
8:55 AM,41.2,34.5,77,30.12,10.0,SSW,3.5,-,N/A,,Clear,200,2013-01-20 13:55:00
9:35 AM,46.0,33.1,61,30.14,10.0,SSW,3.5,-,N/A,,Clear,210,2013-01-20 14:35:00
9:55 AM,47.8,33.3,57,30.14,10.0,Calm,Calm,-,N/A,,Clear,0,2013-01-20 14:55:00
10:15 AM,49.1,32.2,52,30.14,10.0,WSW,4.6,-,N/A,,Clear,240,2013-01-20 15:15:00
10:35 AM,50.9,32.0,48,30.13,10.0,SW,3.5,-,N/A,,Clear,230,2013-01-20 15:35:00
10:55 AM,52.7,31.3,44,30.13,10.0,WSW,4.6,-,N/A,,Clear,250,2013-01-20 15:55:00
11:15 AM,54.0,30.2,40,30.12,10.0,Calm,Calm,-,N/A,,Clear,0,2013-01-20 16:15:00
11:35 AM,56.3,28.8,35,30.11,10.0,NW,5.8,-,N/A,,Clear,320,2013-01-20 16:35:00
11:55 AM,57.7,28.4,33,30.10,10.0,SW,4.6,-,N/A,,Clear,230,2013-01-20 16:55:00
12:15 PM,58.3,27.9,31,30.08,10.0,Calm,Calm,-,N/A,,Clear,0,2013-01-20 17:15:00
12:35 PM,59.7,27.5,29,30.07,10.0,WSW,4.6,-,N/A,,Clear,240,2013-01-20 17:35:00
12:55 PM,60.6,28.0,29,30.06,10.0,NW,3.5,-,N/A,,Clear,310,2013-01-20 17:55:00
1:15 PM,61.7,27.1,27,30.05,10.0,SW,5.8,-,N/A,,Clear,230,2013-01-20 18:15:00
1:35 PM,62.4,27.0,26,30.04,10.0,WSW,3.5,-,N/A,,Clear,240,2013-01-20 18:35:00
1:55 PM,62.8,26.2,25,30.03,10.0,WSW,3.5,-,N/A,,Clear,250,2013-01-20 18:55:00
2:15 PM,63.9,27.9,26,30.03,10.0,SW,5.8,-,N/A,,Clear,230,2013-01-20 19:15:00
2:35 PM,64.8,28.2,25,30.02,10.0,WSW,4.6,-,N/A,,Clear,250,2013-01-20 19:35:00
2:55 PM,64.8,28.0,25,30.02,10.0,SW,4.6,-,N/A,,Clear,220,2013-01-20 19:55:00
3:15 PM,65.3,28.6,25,30.02,10.0,WSW,3.5,-,N/A,,Clear,240,2013-01-20 20:15:00
3:35 PM,65.3,29.7,26,30.02,10.0,West,4.6,-,N/A,,Clear,260,2013-01-20 20:35:00
3:55 PM,65.3,29.5,26,30.02,10.0,West,6.9,-,N/A,,Clear,270,2013-01-20 20:55:00
4:15 PM,64.9,29.5,26,30.02,10.0,Calm,Calm,-,N/A,,Clear,0,2013-01-20 21:15:00
4:35 PM,64.6,29.7,27,30.02,10.0,Calm,Calm,-,N/A,,Clear,0,2013-01-20 21:35:00
4:55 PM,63.9,30.6,29,30.02,10.0,Calm,Calm,-,N/A,,Clear,0,2013-01-20 21:55:00
5:15 PM,61.5,32.4,33,30.03,10.0,Calm,Calm,-,N/A,,Clear,0,2013-01-20 22:15:00
5:35 PM,55.4,37.6,51,30.03,10.0,Calm,Calm,-,N/A,,Clear,0,2013-01-20 22:35:00
5:55 PM,53.4,37.8,55,30.04,10.0,Calm,Calm,-,N/A,,Clear,0,2013-01-20 22:55:00
6:15 PM,50.4,39.6,66,30.04,10.0,Calm,Calm,-,N/A,,Clear,0,2013-01-20 23:15:00
6:35 PM,48.6,39.9,72,30.05,10.0,Calm,Calm,-,N/A,,Clear,0,2013-01-20 23:35:00
6:55 PM,46.8,41.0,80,30.05,10.0,Calm,Calm,-,N/A,,Clear,0,2013-01-20 23:55:00
7:15 PM,45.9,40.8,83,30.06,10.0,Calm,Calm,-,N/A,,Clear,0,2013-01-21 00:15:00
7:35 PM,44.8,40.5,85,30.06,10.0,Calm,Calm,-,N/A,,Clear,0,2013-01-21 00:35:00
7:55 PM,42.8,39.4,88,30.06,10.0,Calm,Calm,-,N/A,,Clear,0,2013-01-21 00:55:00
8:15 PM,42.1,39.2,90,30.07,10.0,Calm,Calm,-,N/A,,Clear,0,2013-01-21 01:15:00
8:35 PM,41.0,37.9,89,30.07,10.0,Calm,Calm,-,N/A,,Clear,0,2013-01-21 01:35:00
8:55 PM,46.0,38.1,74,30.08,10.0,Calm,Calm,-,N/A,,Clear,0,2013-01-21 01:55:00
9:15 PM,43.2,37.4,80,30.09,10.0,Calm,Calm,-,N/A,,Clear,0,2013-01-21 02:15:00
9:35 PM,40.5,36.7,86,30.09,10.0,Calm,Calm,-,N/A,,Clear,0,2013-01-21 02:35:00
9:55 PM,39.4,36.5,89,30.10,10.0,Calm,Calm,-,N/A,,Clear,0,2013-01-21 02:55:00
10:15 PM,39.2,36.5,90,30.10,10.0,Calm,Calm,-,N/A,,Clear,0,2013-01-21 03:15:00
10:35 PM,38.3,36.0,91,30.11,10.0,Calm,Calm,-,N/A,,Clear,0,2013-01-21 03:35:00
10:55 PM,36.7,34.9,93,30.11,10.0,Calm,Calm,-,N/A,,Clear,0,2013-01-21 03:55:00
11:15 PM,37.6,35.4,92,30.10,10.0,Calm,Calm,-,N/A,,Clear,0,2013-01-21 04:15:00
11:35 PM,34.7,32.7,92,30.10,10.0,Calm,Calm,-,N/A,,Clear,0,2013-01-21 04:35:00
11:55 PM,35.2,33.3,92,30.10,10.0,Calm,Calm,-,N/A,,Clear,0,2013-01-21 04:55:00